GEESAT 6-10

导读

GEESAT 6-10是中国发射的一颗卫星,于北京时间2025年9月24日发射升空,属于GEESAT卫星系列。作为中国航天布局中该系列卫星的组成部分,它将依托空间运行平台,在既定轨道开展相关航天任务,助力中国在对应领域的技术探索与应用拓展,推动航天事业持续发展。

基本信息
目录编号:
65722
目录名称:
GEESAT 6-10
国际标识:
2025-214L
轨道中心:
EARTH
卫星名称:
GEESAT 6-10
卫星全名:
GEESAT 6-10
卫星状态:
在轨 (已飞行352 天)
发射日期:
2025-09-24 UTC
国别 :
中国 (CN)
星等 :
--
该卫星已列入 空间交会检测服务 Space Conjunction Data Service (SCDS) ,当前飞行风险评估等级: 无高风险
轨道信息
数据来源 国际轨道数据 AOE轨道数据
星历时间 2026-09-11T08:20:40+0800
14小时前
查看轨道信息
2026-09-06T02:00:00+0800
5天前
查看轨道信息
半长轴 6996.24km 6996.263km
偏心率 0.0011566 0.0011264
轨道倾角 49.990° 49.989°
近地点辐角 206.507° 185.540°
升交点赤经 271.011° 295.411°
平近点角 153.527° 118.408°
近地点 610.011km 610.245km
远地点 626.195km 626.007km
周期 97.064分钟 97.064分钟
每日圈数 14.835623 14.835549
详细信息
使用方式:
暂无
2D轨道图
3D轨道图
轨道高度分析图
轨道倾角分析图
轨道综合分析图
查看轨道综合分析图
交会数据列表
事件ID 空间交会对象 最接近时刻(TCA) 交会距离 交会风险概率(CRP) 交会风险指数(CRI) 操作
CDM_260912-182400-895606-572224
2026-09-12T
18:24:34+0000
2.819 km
极远距离
1.433758E-6 低风险 0.38
与全量物体交会距离演化趋势
与全量物体交会风险概率演化趋势